| time (UTC) | temp F | wind direction | speed MPH | gust MPH | rain 1hr in | rain 24hr in | rain mn in | humidity % | barometer mb |
| 20260509094554 | 75 | 120 | 4.0 | 7.0 | 0.00 | 0.01 | 0.00 | 94 | 1010.4 |
| 20260509093055 | 75 | 109 | 6.0 | 9.0 | 0.00 | 0.01 | 0.00 | 94 | 1010.4 |
| 20260509091552 | 75 | 107 | 4.0 | 7.0 | 0.00 | 0.01 | 0.00 | 94 | 1010.1 |
| 20260509090104 | 75 | 122 | 2.0 | 6.0 | 0.00 | 0.01 | 0.00 | 94 | 1010.3 |
| 20260509084601 | 75 | 143 | 4.0 | 8.0 | 0.00 | 0.01 | 0.00 | 94 | 1010.3 |
| 20260509083055 | 75 | 120 | 3.0 | 6.0 | 0.00 | 0.01 | 0.00 | 94 | 1010.8 |
| 20260509081555 | 75 | 131 | 2.0 | 4.0 | 0.00 | 0.01 | 0.00 | 93 | 1010.8 |
| 20260509080059 | 75 | 123 | 2.0 | 6.0 | 0.00 | 0.01 | 0.00 | 93 | 1010.8 |
| 20260509074601 | 75 | 123 | 5.0 | 10.0 | 0.00 | 0.01 | 0.00 | 93 | 1010.7 |
| 20260509073100 | 76 | 123 | 5.0 | 10.0 | 0.00 | 0.01 | 0.00 | 93 | 1010.7 |
| 20260509071613 | 76 | 119 | 7.0 | 10.0 | 0.00 | 0.01 | 0.00 | 93 | 1010.8 |
| 20260509070101 | 76 | 117 | 4.0 | 9.0 | 0.00 | 0.01 | 0.00 | 93 | 1010.9 |
| 20260509064607 | 76 | 121 | 8.0 | 10.0 | 0.00 | 0.01 | 0.00 | 93 | 1011.0 |
| 20260509063106 | 76 | 121 | 9.0 | 12.0 | 0.00 | 0.01 | 0.00 | 93 | 1011.0 |
| 20260509061602 | 76 | 134 | 8.0 | 11.0 | 0.00 | 0.01 | 0.00 | 93 | 1011.0 |
| 20260509060107 | 76 | 137 | 10.0 | 14.0 | 0.00 | 0.01 | 0.00 | 93 | 1011.0 |
| 20260509054607 | 76 | 124 | 8.0 | 12.0 | 0.00 | 0.01 | 0.00 | 93 | 1011.2 |
| 20260509053054 | 76 | 105 | 5.0 | 12.0 | 0.00 | 0.01 | 0.00 | 92 | 1011.4 |
| 20260509051556 | 76 | 116 | 7.0 | 13.0 | 0.00 | 0.01 | 0.00 | 92 | 1011.4 |
| 20260509050059 | 76 | 107 | 9.0 | 14.0 | 0.00 | 0.01 | 0.00 | 92 | 1011.8 |
| 20260509044557 | 76 | 119 | 11.0 | 15.0 | 0.00 | 0.01 | 0.01 | 92 | 1011.6 |
| 20260509043102 | 76 | 134 | 6.0 | 12.0 | 0.00 | 0.01 | 0.01 | 93 | 1012.0 |
| 20260509041555 | 76 | 139 | 8.0 | 15.0 | 0.00 | 0.01 | 0.01 | 93 | 1012.0 |
| 20260509040056 | 76 | 130 | 11.0 | 15.0 | 0.00 | 0.01 | 0.01 | 93 | 1011.8 |
| 20260509034601 | 76 | 96 | 8.0 | 14.0 | 0.00 | 0.01 | 0.01 | 93 | 1011.6 |
| 20260509033056 | 76 | 128 | 9.0 | 14.0 | 0.00 | 0.01 | 0.01 | 93 | 1011.6 |
| 20260509031601 | 76 | 124 | 5.0 | 14.0 | 0.00 | 0.01 | 0.01 | 93 | 1011.2 |
| 20260509030055 | 76 | 130 | 7.0 | 13.0 | 0.00 | 0.01 | 0.01 | 93 | 1010.7 |
| 20260509024554 | 76 | 139 | 9.0 | 14.0 | 0.00 | 0.01 | 0.01 | 93 | 1011.0 |
| 20260509023102 | 76 | 121 | 8.0 | 16.0 | 0.00 | 0.01 | 0.01 | 93 | 1010.8 |
| 20260509021600 | 76 | 121 | 11.0 | 17.0 | 0.00 | 0.01 | 0.01 | 93 | 1010.6 |
| 20260509020058 | 76 | 98 | 4.0 | 9.0 | 0.00 | 0.01 | 0.01 | 93 | 1011.3 |
| 20260509014553 | 76 | 99 | 9.0 | 18.0 | 0.00 | 0.01 | 0.01 | 92 | 1010.4 |
| 20260509013115 | 76 | 124 | 7.0 | 12.0 | 0.00 | 0.01 | 0.01 | 92 | 1010.0 |
| 20260509011559 | 75 | 89 | 6.0 | 10.0 | 0.00 | 0.01 | 0.01 | 92 | 1010.7 |
| 20260509010053 | 75 | 103 | 3.0 | 9.0 | 0.00 | 0.01 | 0.01 | 93 | 1010.6 |
| 20260509004558 | 75 | 113 | 10.0 | 17.0 | 0.00 | 0.01 | 0.01 | 93 | 1010.1 |
| 20260509003102 | 75 | 115 | 7.0 | 12.0 | 0.00 | 0.01 | 0.01 | 92 | 1010.1 |
| 20260509001600 | 75 | 57 | 5.0 | 11.0 | 0.00 | 0.01 | 0.01 | 92 | 1010.2 |
| 20260509000056 | 75 | 63 | 5.0 | 11.0 | 0.00 | 0.01 | 0.01 | 92 | 1010.6 |
| 20260508234553 | 75 | 88 | 5.0 | 12.0 | 0.00 | 0.01 | 0.01 | 92 | 1010.4 |
| 20260508233053 | 75 | 67 | 7.0 | 11.0 | 0.00 | 0.01 | 0.01 | 92 | 1010.2 |
| 20260508231556 | 74 | 65 | 7.0 | 12.0 | 0.00 | 0.01 | 0.01 | 92 | 1010.6 |
| 20260508224607 | 74 | 44 | 5.0 | 13.0 | 0.01 | 0.01 | 0.01 | 93 | 1010.6 |
| 20260508223055 | 74 | 53 | 7.0 | 14.0 | 0.01 | 0.01 | 0.01 | 93 | 1010.5 |
| 20260508221603 | 74 | 65 | 7.0 | 12.0 | 0.01 | 0.01 | 0.01 | 92 | 1010.6 |
| 20260508220055 | 74 | 56 | 4.0 | 9.0 | 0.01 | 0.01 | 0.01 | 92 | 1010.7 |
| 20260508214555 | 73 | 78 | 5.0 | 11.0 | 0.00 | 0.00 | 0.00 | 92 | 1010.8 |
| 20260508213115 | 73 | 59 | 7.0 | 13.0 | 0.00 | 0.00 | 0.00 | 92 | 1010.8 |
| 20260508211558 | 73 | 55 | 7.0 | 11.0 | 0.00 | 0.00 | 0.00 | 91 | 1010.9 |
| 20260508210105 | 73 | 59 | 6.0 | 11.0 | 0.00 | 0.00 | 0.00 | 91 | 1011.0 |
| 20260508204556 | 73 | 65 | 6.0 | 13.0 | 0.00 | 0.00 | 0.00 | 90 | 1011.0 |
| 20260508203109 | 73 | 63 | 7.0 | 14.0 | 0.00 | 0.00 | 0.00 | 89 | 1011.3 |
| 20260508201557 | 73 | 55 | 9.0 | 15.0 | 0.00 | 0.00 | 0.00 | 89 | 1011.5 |
| 20260508200057 | 73 | 77 | 7.0 | 15.0 | 0.00 | 0.00 | 0.00 | 89 | 1011.7 |
| 20260508194555 | 73 | 58 | 8.0 | 17.0 | 0.00 | 0.00 | 0.00 | 89 | 1011.6 |
| 20260508193126 | 73 | 85 | 8.0 | 14.0 | 0.00 | 0.00 | 0.00 | 88 | 1011.6 |
| 20260508191553 | 73 | 23 | 8.0 | 15.0 | 0.00 | 0.00 | 0.00 | 88 | 1011.9 |
| 20260508190054 | 73 | 54 | 7.0 | 13.0 | 0.00 | 0.00 | 0.00 | 88 | 1011.8 |
| 20260508184622 | 72 | 45 | 9.0 | 17.0 | 0.00 | 0.00 | 0.00 | 89 | 1011.9 |
| 20260508183057 | 72 | 51 | 9.0 | 15.0 | 0.00 | 0.00 | 0.00 | 89 | 1011.8 |
| 20260508181553 | 72 | 343 | 8.0 | 14.0 | 0.00 | 0.00 | 0.00 | 89 | 1012.1 |
| 20260508174617 | 70 | 40 | 8.0 | 15.0 | 0.00 | 0.00 | 0.00 | 91 | 1012.4 |
| 20260508173128 | 69 | 54 | 7.0 | 13.0 | 0.00 | 0.00 | 0.00 | 92 | 1012.9 |
| 20260508171623 | 69 | 34 | 8.0 | 15.0 | 0.00 | 0.00 | 0.00 | 91 | 1013.1 |
| 20260508170053 | 69 | 42 | 6.0 | 15.0 | 0.00 | 0.00 | 0.00 | 92 | 1013.3 |
| 20260508164604 | 68 | 39 | 10.0 | 15.0 | 0.00 | 0.00 | 0.00 | 91 | 1013.7 |
| 20260508163058 | 68 | 30 | 9.0 | 15.0 | 0.00 | 0.00 | 0.00 | 92 | 1014.0 |
| 20260508161602 | 68 | 46 | 7.0 | 15.0 | 0.00 | 0.00 | 0.00 | 92 | 1014.0 |
| 20260508160056 | 68 | 13 | 11.0 | 15.0 | 0.00 | 0.00 | 0.00 | 92 | 1013.9 |
| 20260508154553 | 68 | 349 | 11.0 | 16.0 | 0.00 | 0.00 | 0.00 | 92 | 1014.0 |
| 20260508153058 | 68 | 47 | 12.0 | 18.0 | 0.00 | 0.00 | 0.00 | 92 | 1014.0 |
| 20260508151556 | 70 | 44 | 10.0 | 16.0 | 0.00 | 0.00 | 0.00 | 92 | 1013.9 |
| 20260508150055 | 70 | 36 | 10.0 | 16.0 | 0.00 | 0.00 | 0.00 | 92 | 1013.6 |
| 20260508144555 | 70 | 17 | 6.0 | 14.0 | 0.00 | 0.00 | 0.00 | 91 | 1013.5 |
| 20260508143057 | 70 | 25 | 6.0 | 10.0 | 0.00 | 0.00 | 0.00 | 91 | 1014.0 |
| 20260508141555 | 70 | 39 | 6.0 | 10.0 | 0.00 | 0.00 | 0.00 | 91 | 1013.8 |
| 20260508140056 | 71 | 337 | 4.0 | 12.0 | 0.00 | 0.00 | 0.00 | 90 | 1013.7 |
| 20260508134621 | 72 | 35 | 6.0 | 11.0 | 0.00 | 0.00 | 0.00 | 91 | 1013.4 |
| 20260508133110 | 72 | 38 | 5.0 | 10.0 | 0.00 | 0.00 | 0.00 | 91 | 1013.6 |
| 20260508131557 | 71 | 52 | 8.0 | 15.0 | 0.00 | 0.00 | 0.00 | 91 | 1013.8 |
| 20260508130056 | 71 | 36 | 6.0 | 14.0 | 0.00 | 0.00 | 0.00 | 91 | 1013.8 |
| 20260508124555 | 71 | 56 | 8.0 | 16.0 | 0.00 | 0.00 | 0.00 | 91 | 1013.6 |
| 20260508123102 | 71 | 50 | 8.0 | 16.0 | 0.00 | 0.00 | 0.00 | 90 | 1013.2 |
| 20260508121600 | 71 | 57 | 7.0 | 12.0 | 0.00 | 0.00 | 0.00 | 90 | 1013.3 |
| 20260508120056 | 71 | 49 | 6.0 | 13.0 | 0.00 | 0.00 | 0.00 | 90 | 1013.3 |
| 20260508114604 | 72 | 65 | 7.0 | 12.0 | 0.00 | 0.00 | 0.00 | 90 | 1013.3 |
| 20260508113103 | 74 | 55 | 4.0 | 9.0 | 0.00 | 0.00 | 0.00 | 91 | 1013.5 |
| 20260508111600 | 74 | 82 | 5.0 | 11.0 | 0.00 | 0.00 | 0.00 | 91 | 1013.5 |
| 20260508110058 | 74 | 49 | 6.0 | 10.0 | 0.00 | 0.00 | 0.00 | 90 | 1013.3 |
| 20260508104554 | 74 | 56 | 4.0 | 11.0 | 0.00 | 0.00 | 0.00 | 90 | 1013.5 |
| 20260508103056 | 74 | 55 | 6.0 | 11.0 | 0.00 | 0.00 | 0.00 | 90 | 1013.1 |
| 20260508101557 | 74 | 59 | 5.0 | 10.0 | 0.00 | 0.00 | 0.00 | 90 | 1013.2 |